Tracking 22130 objects as of 21-Jan-2021
HD Live streaming from Space Station
objects crossing your sky now

STARLINK-1234

Track STARLINK-1234 now!
10-day predictions
STARLINK-1234 is classified as:


NORAD ID: 45190
Int'l Code: 2020-012N
Perigee: 553.0 km
Apogee: 555.6 km
Inclination: 53.1 °
Period: 95.6 minutes
Semi major axis: 6925 km
RCS: Unknown
Launch date: February 17, 2020
Source: United States (US)
Launch site: AIR FORCE EASTERN TEST RANGE (AFETR)
aabbcc
Your satellite tracking list
Your tracking list is empty




NASA's NSSDC Master Catalog

Two Line Element Set (TLE):
1 45190U 20012N   21021.56772823  .00000522  00000-0  53927-4 0  9999
2 45190  53.0589 135.3804 0001905  92.3928 267.7279 15.06407954 52977
Source of the keplerian elements: AFSPC